Biggin Hill, United Kingdom

3:25 PM BST on April 25, 2018 (GMT +0100)
Biggin Hill

Weather History for EGKB - November, 2012

Change the Weather History Date:

Sunday, November 18, 2012

  Actual Average Record
Temperature  
Mean Temperature 44 °F -  
Max Temperature 50 °F 45 °F 57 °F (2015)
Min Temperature 39 °F 39 °F 24 °F (2005)
Degree Days  
Heating Degree Days 20    
Moisture  
Dew Point 35 °F    
Average Humidity 72    
Maximum Humidity 87    
Minimum Humidity 57    
Precipitation  
Precipitation 0.00 in - - ()
Sea Level Pressure  
Sea Level Pressure 29.98 in    
Wind  
Wind Speed 3 mph ()    
Max Wind Speed 6 mph    
Max Gust Speed -    
Visibility 6.2 miles    
Events      
Averages and records for this station are not official NWS values.
T = Trace of Precipitation, MM = Missing Value Source: Averaged Metar Reports

Daily Weather History Graph

Daily Weather History Graph

Search for Another Location

Airport or City:

Astronomy

Nov. 18, 2012 Rise Set
Actual Time 7:23 AM GMT 4:07 PM GMT
Civil Twilight 6:45 AM GMT 4:44 PM GMT
Nautical Twilight 6:04 AM GMT 5:25 PM GMT
Astronomical Twilight 5:25 AM GMT 6:04 PM GMT
Moon 11:34 AM GMT (11/18) 9:17 PM GMT (11/18)
Length of Visible Light 9h 58m
Length of Day
8h 44m
Waxing Crescent, 28% of the Moon is Illuminated
Nov 18
Waxing Crescent
Nov 20
First Quarter
Nov 28
Full
Dec 6
Last Quarter
Dec 13
New

Hourly Weather History & Observations

Time (GMT) Temp. Windchill Dew Point Humidity Pressure Visibility Wind Dir Wind Speed Gust Speed Precip Events Conditions
8:50 AM 39.2 °F 37.0 °F 35.6 °F 87% 29.95 in - West 3.5 mph - N/A   Clear
9:20 AM 39.2 °F 37.0 °F 35.6 °F 87% 29.95 in - WNW 3.5 mph - N/A   Clear
9:50 AM 41.0 °F 39.0 °F 37.4 °F 87% 29.98 in - NW 3.5 mph - N/A   Clear
10:20 AM 50.0 °F - 42.8 °F 76% 29.98 in - NW 2.3 mph - N/A   Clear
10:50 AM 44.6 °F - 35.6 °F 71% 29.98 in - NNW 2.3 mph - N/A   Clear
11:20 AM 46.4 °F 45.2 °F 37.4 °F 71% 29.98 in - NW 3.5 mph - N/A   Clear
11:50 AM 44.6 °F - 37.4 °F 76% 29.98 in - NW 2.3 mph - N/A   Clear
12:20 PM 46.4 °F - 37.4 °F 71% 29.98 in - West 2.3 mph - N/A   Clear
12:50 PM 46.4 °F - 35.6 °F 66% 29.98 in 6.2 mi NNW 2.3 mph - N/A   Partly Cloudy
1:20 PM 46.4 °F - 35.6 °F 66% 29.98 in 6.2 mi WNW 2.3 mph - N/A   Partly Cloudy
1:50 PM 46.4 °F 45.2 °F 35.6 °F 66% 29.98 in 6.2 mi West 3.5 mph - N/A   Partly Cloudy
2:20 PM 46.4 °F - 33.8 °F 62% 29.98 in 6.2 mi West 1.2 mph - N/A   Partly Cloudy
2:50 PM 46.4 °F - 33.8 °F 62% 29.98 in 6.2 mi WNW 2.3 mph - N/A   Partly Cloudy
3:20 PM 46.4 °F - 32.0 °F 57% 29.98 in 6.2 mi WNW 2.3 mph - N/A   Partly Cloudy
3:50 PM 44.6 °F - 33.8 °F 66% 29.98 in - West 1.2 mph - N/A   Clear
4:20 PM 42.8 °F 41.1 °F 33.8 °F 70% 29.98 in - South 3.5 mph - N/A   Clear
4:50 PM 41.0 °F 39.0 °F 32.0 °F 70% 29.98 in - South 3.5 mph - N/A   Clear
5:20 PM 41.0 °F 39.0 °F 32.0 °F 70% 30.01 in - SSW 3.5 mph - N/A   Clear
5:50 PM 41.0 °F 37.1 °F 32.0 °F 70% 30.01 in - SSW 5.8 mph - N/A   Clear
6:20 PM 41.0 °F 38.0 °F 33.8 °F 76% 30.01 in - South 4.6 mph - N/A   Clear
6:50 PM 39.2 °F 35.0 °F 32.0 °F 75% 30.01 in - SSE 5.8 mph - N/A   Clear
7:20 PM 41.0 °F 38.0 °F 33.8 °F 76% 30.01 in - South 4.6 mph - N/A   Clear